Regional Weather Roundup
Issued by NWS Sterling, VA

Home | Current Version | Previous Version | Graphics & Text | Print | Product List | Glossary On
Versions: 1 2 3 4 5 6 7 8 9 10 11 12 13 14 15 16 17 18 19 20 21 22 23 24 25 26 27 28
000
ASUS41 KLWX 251011
RWRLWX

REGIONAL WEATHER ROUNDUP
NATIONAL WEATHER SERVICE BALTIMORE MD/WASHINGTON DC
600 AM EDT SAT MAR 25 2017

Note: "FAIR" indicates few or no clouds below 12,000 feet
with no significant weather and/or obstructions to visibility.
 TC=TEMPERATURE CELSIUS

 * =Non NWS site. Station does not report precipitation (e.g. rain,
    snow, etc.), thunder, or fog.

DCZ001-MDZ009-015-VAZ040>042-051-053>054-251100-
WASHINGTON METRO

CITY           SKY/WX    TMP DP  RH WIND       PRES   REMARKS
WASHINGTON NAT CLOUDY    56  48  74 S9        30.16R
DULLES         CLOUDY    55  46  71 S6        30.15R
ANDREWS AFB    MOCLDY    57  47  67 S8        30.15R
FT BELVOIR     CLOUDY    52  45  77 CALM      30.16R
QUANTICO       CLOUDY    51  47  86 S12       30.18R
COLLEGE PARK*  CLOUDY    50  45  81 CALM      30.15S
LEESBURG*      MOCLDY    50  48  93 SW5       30.16R
MANASSAS*      CLOUDY    52  46  80 SW3       30.17R

$$

MDZ006>007-011-014-251100-
BALTIMORE METRO

CITY           SKY/WX    TMP DP  RH WIND       PRES   REMARKS
BWI AIRPORT    CLOUDY    58  47  66 SW5       30.14R
MD SCIENCE CTR   N/A     57  44  62 MISG      30.14S
MARTIN STATE   MOCLDY    46  45  93 CALM      30.16R
ANNAPOLIS      CLOUDY    59  47  64 CALM      30.15R
FORT MEADE*    CLOUDY    54  45  71 S3        30.17S

$$

MDZ012-015-019>023-251100-
MARYLAND EASTERN SHORE

CITY           SKY/WX    TMP DP  RH WIND       PRES   REMARKS
OCEAN CITY     PTCLDY    51  45  79 SW8       30.20R
SALISBURY      PTCLDY    57  47  69 SW12      30.19R
BAY BRIDGE AP* MOCLDY    52  46  82 S5        30.16R
CAMBRIDGE*     CLEAR     57  46  67 S7        30.18R
EASTON*        CLOUDY    54  46  76 S6        30.21R

$$

MDZ017>025-251100-
SOUTHERN MARYLAND

CITY           SKY/WX    TMP DP  RH WIND       PRES   REMARKS
PATUXENT RIVER PTCLDY    57  50  77 SW10      30.18R
ST INIGOES     CLOUDY    54  46  74 SW7       30.19R
LEONARDTOWN*   PTCLDY    57  46  67 SW10      30.20R

$$

MDZ003>005-251100-
NORTH CENTRAL MARYLAND

CITY           SKY/WX    TMP DP  RH WIND       PRES   REMARKS
FREDERICK*     MOCLDY    50  50 100 CALM      30.17R
HAGERSTOWN APT PTCLDY    57  46  66 S9        30.13R
WESTMINSTER*   CLOUDY    57  48  72 SW6       30.14R

$$

MDZ501>502-251100-
WESTERN MARYLAND

CITY           SKY/WX    TMP DP  RH WIND       PRES   REMARKS
OAKLAND*       MOCLDY    55  45  67 W13G21    30.20R
CUMBERLAND*    CLOUDY    57  48  72 CALM      30.18R

$$

VAZ025>031-251100-
SHENANDOAH VALLEY

CITY           SKY/WX    TMP DP  RH WIND       PRES   REMARKS
WINCHESTER*    CLOUDY    59  45  58 SW8       30.15R
FRONT ROYAL*     N/A    N/A N/A N/A MISG        N/A
LURAY*         CLOUDY    59  50  72 SW8       30.18R
NEW MARKET*    CLOUDY    55  46  70 W6        30.18R
STAUNTON*      CLOUDY    55  46  70 S7        30.22S
WAYNESBORO*    PTCLDY    58  48  68 SW7       30.22R

$$

WVZ021-048>050-054>055-251100-
EASTERN WEST VIRGINIA PANHANDLE

CITY           SKY/WX    TMP DP  RH WIND       PRES   REMARKS
MARTINSBURG    CLOUDY    60  46  59 SW8       30.13R
PETERSBURG*    CLOUDY    58  48  71 E3        30.17R

$$

VAZ036>039-050-251100-
CENTRAL FOOTHILLS

CITY           SKY/WX    TMP DP  RH WIND       PRES   REMARKS
CHARLOTTESVILL CLOUDY    56  47  71 S9        30.19R
CULPEPER*      CLOUDY    56  48  73 CALM      30.17S
ORANGE*        PTCLDY    57  45  62 S7        30.19R
GORDONSVILLE*  PTCLDY    55  47  76 SW8       30.18R
WARRENTON*     CLOUDY    58  45  60 SW3       30.16R

$$

VAZ055>057-251100-
NORTH AND CENTRAL PIEDMONT

CITY           SKY/WX    TMP DP  RH WIND       PRES   REMARKS
FREDERICKSBRG* CLOUDY    61  49  65 SW6       30.18R
STAFFORD*      CLOUDY    58  47  67 S6        30.21S

$$

NCZ024-NYZ072-PAZ021-071-VAZ022-071-251100-
OTHER REGIONAL OBSERVATIONS

CITY           SKY/WX    TMP DP  RH WIND       PRES   REMARKS
NEW YORK CITY  PTCLDY    54  37  52 W8G18     30.09R
PHILADELPHIA   CLOUDY    52  43  71 SW12      30.13S
PITTSBURGH     CLOUDY    64  51  62 SW7       30.12S
ROANOKE        MOCLDY    57  45  64 NW3       30.27R
RICHMOND       CLOUDY    57  48  72 SW13      30.23R
RALEIGH        CLOUDY    53  49  86 SW7       30.30R

$$

ANZ530>537-251100-
MARINE OBSERVATIONS

STATION/POSITION TIME  TEMP    WIND        PRES
                       AIR SEA DIR/SP/G
                 (UTC) (F)     (DEG/KT/KT) (MB)
THOMAS PT LIGHT  1000   60 44  220/ 12/ 13   N/A
BALT KEY BRIDGE  0948   58     180/  2/  3 1020.7R
COVE POINT       0948   59     250/ 16/ 20 1022.3R
LEWISETTA        0948   59 48  250/ 11/ 16 1022.0R
SOLOMONS ISLAND  0948   56 45  230/ 11/ 13   N/A
PINEY POINT      0948          310/  4/  5   N/A

$$





USA.gov is the U.S. government's official web portal to all federal, state and local government web resources and services.